Fort Myers, FL

5:47 AM EST on February 25, 2017 (GMT -0500)
Southwest Florida International

Weather History for KRSW - March, 2014

Change the Weather History Date:

Saturday, March 15, 2014

  Actual Average Record
Temperature  
Mean Temperature 68 °F -  
Max Temperature 81 °F 79 °F 91 °F (1945)
Min Temperature 55 °F 58 °F 39 °F (1993)
Cooling Degree Days 2    
Growing Degree Days 18 (Base 50)    
Moisture  
Dew Point 53 °F    
Average Humidity 63    
Maximum Humidity 87    
Minimum Humidity 36    
Precipitation  
Precipitation 0.00 in - - ()
Sea Level Pressure  
Sea Level Pressure 30.09 in    
Wind  
Wind Speed 5 mph (ESE)    
Max Wind Speed 14 mph    
Max Gust Speed 17 mph    
Visibility 10 miles    
Events      
Averages and records for this station are not official NWS values.
T = Trace of Precipitation, MM = Missing Value Source: NWS Daily Summary

Daily Weather History Graph

Daily Weather History Graph

Search for Another Location

Airport or City:

Trip Planner

Search our weather history database for the weather conditions in past years. The results will help you decide how hot, cold, wet, or windy it might be!

Date:

Astronomy

Mar. 15, 2014 Rise Set
Actual Time 7:36 AM EDT 7:35 PM EDT
Civil Twilight 7:13 AM EDT 7:58 PM EDT
Nautical Twilight 6:46 AM EDT 8:25 PM EDT
Astronomical Twilight 6:19 AM EDT 8:52 PM EDT
Moon 6:54 PM EDT (3/15) 6:44 AM EDT (3/15)
Length of Visible Light 12h 45m
Length of Day
11h 59m
Waxing Gibbous, 99% of the Moon is Illuminated
Mar 15
Waxing Gibbous
Mar 16
Full
Mar 23
Last Quarter
Mar 30
New
Apr 7
First Quarter

Hourly Weather History & Observations

Time (EDT) Temp. Dew Point Humidity Pressure Visibility Wind Dir Wind Speed Gust Speed Precip Events Conditions
12:53 AM 59.0 °F 51.1 °F 75% 30.17 in 10.0 mi East 4.6 mph - N/A   Clear
1:53 AM 57.9 °F 51.1 °F 78% 30.17 in 10.0 mi Calm Calm - N/A   Clear
2:53 AM 55.0 °F 50.0 °F 83% 30.14 in 10.0 mi East 3.5 mph - N/A   Clear
3:53 AM 55.0 °F 50.0 °F 83% 30.12 in 10.0 mi ENE 3.5 mph - N/A   Clear
4:53 AM 55.0 °F 50.0 °F 83% 30.12 in 10.0 mi East 5.8 mph - N/A   Clear
5:53 AM 55.0 °F 50.0 °F 83% 30.11 in 10.0 mi East 5.8 mph - N/A   Clear
6:53 AM 55.9 °F 51.1 °F 84% 30.11 in 10.0 mi ENE 6.9 mph - N/A   Clear
7:53 AM 55.9 °F 52.0 °F 87% 30.13 in 10.0 mi ENE 5.8 mph - N/A   Clear
8:53 AM 62.1 °F 55.0 °F 78% 30.12 in 10.0 mi East 5.8 mph - N/A   Clear
9:53 AM 68.0 °F 55.9 °F 65% 30.14 in 10.0 mi ENE 6.9 mph - N/A   Clear
10:53 AM 73.0 °F 55.0 °F 53% 30.15 in 10.0 mi SE 10.4 mph - N/A   Clear
11:53 AM 75.9 °F 54.0 °F 46% 30.14 in 10.0 mi SSE 13.8 mph - N/A   Partly Cloudy
12:53 PM 75.9 °F 54.0 °F 46% 30.13 in 10.0 mi ESE 9.2 mph 17.3 mph N/A   Scattered Clouds
1:53 PM 77.0 °F 53.1 °F 43% 30.10 in 10.0 mi SE 8.1 mph - N/A   Scattered Clouds
2:53 PM 80.1 °F 51.1 °F 36% 30.07 in 10.0 mi Calm Calm - N/A   Scattered Clouds
3:53 PM 79.0 °F 51.1 °F 38% 30.04 in 10.0 mi ESE 9.2 mph - N/A   Mostly Cloudy
4:53 PM 78.1 °F 51.1 °F 39% 30.03 in 10.0 mi SE 5.8 mph - N/A   Mostly Cloudy
5:53 PM 78.1 °F 55.9 °F 46% 30.02 in 10.0 mi West 9.2 mph - N/A   Partly Cloudy
6:53 PM 75.0 °F 54.0 °F 48% 30.02 in 10.0 mi WSW 9.2 mph - N/A   Clear
7:53 PM 72.0 °F 55.0 °F 55% 30.03 in 10.0 mi WSW 4.6 mph - N/A   Clear
8:53 PM 71.1 °F 57.0 °F 61% 30.04 in 10.0 mi WSW 3.5 mph - N/A   Clear
9:53 PM 70.0 °F 57.0 °F 63% 30.05 in 10.0 mi Calm Calm - N/A   Mostly Cloudy
10:53 PM 69.1 °F 57.9 °F 68% 30.06 in 10.0 mi SE 3.5 mph - N/A   Mostly Cloudy
11:53 PM 66.9 °F 57.9 °F 73% 30.06 in 10.0 mi Calm Calm - N/A   Mostly Cloudy